Time,TemperatureF,DewpointF,PressureIn,WindDirection,WindDirectionDegrees,WindSpeedMPH,WindSpeedGustMPH,Humidity,HourlyPrecipIn,Conditions,Clouds,dailyrainin,SoftwareType,DateUTC
2013-02-21 00:00:00,42.8,33.8,29.68,NE,45,1.6,3.4,70,0.00,,,0.00,WUHU216HW,2013-02-21 06:00:00,
2013-02-21 00:05:00,42.7,34.0,29.68,ENE,68,2.5,6.5,71,0.00,,,0.00,WUHU216HW,2013-02-21 06:05:00,
2013-02-21 00:10:00,42.7,33.7,29.68,SE,135,0.9,6.5,70,0.00,,,0.00,WUHU216HW,2013-02-21 06:10:00,
2013-02-21 00:15:00,42.7,34.0,29.68,East,90,1.6,4.0,71,0.00,,,0.00,WUHU216HW,2013-02-21 06:15:00,
2013-02-21 00:20:00,42.7,34.0,29.67,ENE,68,1.1,4.0,71,0.00,,,0.00,WUHU216HW,2013-02-21 06:20:00,
2013-02-21 00:25:00,42.8,33.8,29.67,ENE,68,1.1,3.8,70,0.00,,,0.00,WUHU216HW,2013-02-21 06:25:00,
2013-02-21 00:30:00,42.8,33.8,29.67,North,0,1.3,3.8,70,0.00,,,0.00,WUHU216HW,2013-02-21 06:30:00,
2013-02-21 00:35:00,42.8,33.8,29.68,SE,135,2.0,4.5,70,0.00,,,0.00,WUHU216HW,2013-02-21 06:35:00,
2013-02-21 00:40:00,42.8,33.8,29.67,NE,45,2.5,4.5,70,0.00,,,0.00,WUHU216HW,2013-02-21 06:40:00,
2013-02-21 00:45:00,42.8,33.8,29.66,NNW,338,1.8,4.0,70,0.00,,,0.00,WUHU216HW,2013-02-21 06:45:00,
2013-02-21 00:50:00,42.8,34.2,29.66,NNE,23,1.6,4.0,71,0.00,,,0.00,WUHU216HW,2013-02-21 06:50:00,
2013-02-21 00:55:00,42.8,33.8,29.66,East,90,2.2,5.6,70,0.00,,,0.00,WUHU216HW,2013-02-21 06:55:00,
2013-02-21 01:00:00,42.8,34.2,29.66,NNE,23,0.9,5.6,71,0.00,,,0.00,WUHU216HW,2013-02-21 07:00:00,
2013-02-21 01:05:00,42.8,34.2,29.67,ENE,68,0.9,3.4,71,0.00,,,0.00,WUHU216HW,2013-02-21 07:05:00,
2013-02-21 01:10:00,42.8,34.2,29.67,ENE,68,1.1,4.0,71,0.00,,,0.00,WUHU216HW,2013-02-21 07:10:00,
2013-02-21 01:15:00,43.0,34.3,29.67,ESE,113,1.6,4.0,71,0.00,,,0.00,WUHU216HW,2013-02-21 07:15:00,
2013-02-21 01:20:00,42.8,34.2,29.66,SE,135,0.7,4.0,71,0.00,,,0.00,WUHU216HW,2013-02-21 07:20:00,
2013-02-21 01:25:00,42.8,34.2,29.66,East,90,3.1,4.0,71,0.00,,,0.00,WUHU216HW,2013-02-21 07:25:00,
2013-02-21 01:30:00,42.8,33.8,29.66,SSE,158,0.7,3.1,70,0.00,,,0.00,WUHU216HW,2013-02-21 07:30:00,
2013-02-21 01:35:00,42.8,34.2,29.66,ENE,68,1.3,3.1,71,0.00,,,0.00,WUHU216HW,2013-02-21 07:35:00,
2013-02-21 01:40:00,42.8,34.2,29.65,NNE,23,0.2,2.9,71,0.00,,,0.00,WUHU216HW,2013-02-21 07:40:00,
2013-02-21 01:45:00,42.8,34.2,29.65,ESE,113,1.1,2.9,71,0.00,,,0.00,WUHU216HW,2013-02-21 07:45:00,
2013-02-21 01:50:00,42.8,34.2,29.66,North,0,0.7,4.0,71,0.00,,,0.00,WUHU216HW,2013-02-21 07:50:00,
2013-02-21 01:55:00,43.0,34.3,29.66,North,0,2.9,4.0,71,0.00,,,0.00,WUHU216HW,2013-02-21 07:55:00,
2013-02-21 02:00:00,43.0,34.3,29.67,NNE,23,1.1,3.4,71,0.00,,,0.00,WUHU216HW,2013-02-21 08:00:00,
2013-02-21 02:05:00,43.0,34.3,29.66,NE,45,1.8,3.4,71,0.00,,,0.00,WUHU216HW,2013-02-21 08:05:00,
2013-02-21 02:10:00,43.0,34.3,29.66,NNW,338,0.4,3.1,71,0.00,,,0.00,WUHU216HW,2013-02-21 08:10:00,
2013-02-21 02:15:00,43.2,34.5,29.67,SSE,158,0.4,3.1,71,0.00,,,0.00,WUHU216HW,2013-02-21 08:15:00,
2013-02-21 02:20:00,43.2,34.5,29.67,NE,45,2.5,2.7,71,0.00,,,0.00,WUHU216HW,2013-02-21 08:20:00,
2013-02-21 02:25:00,43.2,34.5,29.66,ENE,68,0.4,3.1,71,0.00,,,0.00,WUHU216HW,2013-02-21 08:25:00,
2013-02-21 02:30:00,43.2,34.5,29.66,NE,45,1.1,3.1,71,0.01,,,0.01,WUHU216HW,2013-02-21 08:30:00,
2013-02-21 02:35:00,43.2,35.2,29.65,NE,45,0.2,2.0,73,0.01,,,0.01,WUHU216HW,2013-02-21 08:35:00,
2013-02-21 02:40:00,43.2,34.8,29.65,NE,45,0.4,2.5,72,0.01,,,0.01,WUHU216HW,2013-02-21 08:40:00,
2013-02-21 02:45:00,43.0,35.0,29.65,NNE,23,1.1,2.9,73,0.01,,,0.01,WUHU216HW,2013-02-21 08:45:00,
2013-02-21 02:50:00,43.0,35.0,29.65,East,90,0.7,2.9,73,0.01,,,0.01,WUHU216HW,2013-02-21 08:50:00,
2013-02-21 02:55:00,43.0,35.3,29.65,NNE,23,1.6,4.3,74,0.01,,,0.01,WUHU216HW,2013-02-21 08:55:00,
2013-02-21 03:00:00,43.0,35.3,29.64,NE,45,1.8,4.3,74,0.01,,,0.01,WUHU216HW,2013-02-21 09:00:00,
2013-02-21 03:05:00,43.0,35.3,29.64,ESE,113,1.6,3.4,74,0.01,,,0.01,WUHU216HW,2013-02-21 09:05:00,
2013-02-21 03:10:00,43.0,35.3,29.63,NNE,23,0.2,4.0,74,0.01,,,0.01,WUHU216HW,2013-02-21 09:10:00,
2013-02-21 03:15:00,43.0,35.3,29.62,NNE,23,1.6,4.0,74,0.01,,,0.01,WUHU216HW,2013-02-21 09:15:00,
2013-02-21 03:20:00,43.0,35.7,29.61,NNE,23,1.8,2.7,75,0.01,,,0.01,WUHU216HW,2013-02-21 09:20:00,
2013-02-21 03:25:00,42.8,35.5,29.61,NE,45,0.0,2.7,75,0.00,,,0.01,WUHU216HW,2013-02-21 09:25:00,
2013-02-21 03:30:00,42.8,35.5,29.60,ENE,68,1.1,2.2,75,0.01,,,0.02,WUHU216HW,2013-02-21 09:30:00,
2013-02-21 03:35:00,42.8,35.8,29.60,ESE,113,1.3,2.0,76,0.01,,,0.02,WUHU216HW,2013-02-21 09:35:00,
2013-02-21 03:40:00,42.8,35.8,29.59,SE,135,0.4,2.5,76,0.01,,,0.02,WUHU216HW,2013-02-21 09:40:00,
2013-02-21 03:45:00,43.0,36.0,29.59,ENE,68,1.1,2.5,76,0.01,,,0.02,WUHU216HW,2013-02-21 09:45:00,
2013-02-21 03:50:00,43.0,36.3,29.58,SSE,158,1.6,2.5,77,0.01,,,0.02,WUHU216HW,2013-02-21 09:50:00,
2013-02-21 03:55:00,43.2,36.5,29.57,SSE,158,0.7,2.9,77,0.01,,,0.02,WUHU216HW,2013-02-21 09:55:00,
2013-02-21 04:00:00,43.4,36.3,29.57,ESE,113,1.1,2.9,76,0.01,,,0.02,WUHU216HW,2013-02-21 10:00:00,
2013-02-21 04:05:00,43.4,36.6,29.58,NW,315,2.2,3.1,77,0.01,,,0.02,WUHU216HW,2013-02-21 10:05:00,
2013-02-21 04:10:00,43.6,36.8,29.57,SE,135,1.8,3.1,77,0.01,,,0.02,WUHU216HW,2013-02-21 10:10:00,
2013-02-21 04:15:00,43.7,37.0,29.57,ENE,68,1.8,2.9,77,0.01,,,0.02,WUHU216HW,2013-02-21 10:15:00,
2013-02-21 04:20:00,43.9,37.2,29.57,SE,135,1.3,2.9,77,0.01,,,0.02,WUHU216HW,2013-02-21 10:20:00,
2013-02-21 04:25:00,43.9,37.2,29.57,ENE,68,1.1,3.8,77,0.00,,,0.02,WUHU216HW,2013-02-21 10:25:00,
2013-02-21 04:30:00,44.1,37.4,29.57,East,90,1.1,3.8,77,0.00,,,0.02,WUHU216HW,2013-02-21 10:30:00,
2013-02-21 04:35:00,44.3,37.5,29.57,ENE,68,1.8,4.5,77,0.00,,,0.02,WUHU216HW,2013-02-21 10:35:00,
2013-02-21 04:40:00,44.3,37.5,29.56,South,180,1.6,4.5,77,0.00,,,0.02,WUHU216HW,2013-02-21 10:40:00,
2013-02-21 04:45:00,44.5,37.7,29.55,SE,135,4.0,4.0,77,0.00,,,0.02,WUHU216HW,2013-02-21 10:45:00,
2013-02-21 04:50:00,44.5,37.7,29.55,East,90,2.0,4.7,77,0.00,,,0.02,WUHU216HW,2013-02-21 10:50:00,
2013-02-21 04:55:00,44.6,37.9,29.53,ENE,68,1.8,5.6,77,0.00,,,0.02,WUHU216HW,2013-02-21 10:55:00,
2013-02-21 05:00:00,44.6,37.9,29.52,East,90,1.8,5.6,77,0.00,,,0.02,WUHU216HW,2013-02-21 11:00:00,
2013-02-21 05:05:00,44.6,37.9,29.53,SSE,158,1.8,5.4,77,0.00,,,0.02,WUHU216HW,2013-02-21 11:05:00,
2013-02-21 05:10:00,44.8,37.7,29.53,SE,135,6.9,6.9,76,0.00,,,0.02,WUHU216HW,2013-02-21 11:10:00,
2013-02-21 05:15:00,44.8,37.7,29.52,ESE,113,1.3,6.9,76,0.00,,,0.02,WUHU216HW,2013-02-21 11:15:00,
2013-02-21 05:20:00,45.0,38.3,29.52,NNW,338,1.8,6.9,77,0.00,,,0.02,WUHU216HW,2013-02-21 11:20:00,
2013-02-21 05:25:00,45.0,38.3,29.53,ESE,113,3.1,4.5,77,0.00,,,0.02,WUHU216HW,2013-02-21 11:25:00,
2013-02-21 05:30:00,45.0,38.3,29.53,East,90,2.5,4.5,77,0.00,,,0.02,WUHU216HW,2013-02-21 11:30:00,
2013-02-21 05:35:00,45.0,38.3,29.52,SE,135,1.1,4.7,77,0.00,,,0.02,WUHU216HW,2013-02-21 11:35:00,
2013-02-21 05:40:00,45.0,38.3,29.52,SSW,203,6.3,6.3,77,0.00,,,0.02,WUHU216HW,2013-02-21 11:40:00,
2013-02-21 05:45:00,45.2,38.1,29.53,SW,225,1.8,6.3,76,0.00,,,0.02,WUHU216HW,2013-02-21 11:45:00,
2013-02-21 05:50:00,45.2,38.4,29.53,SE,135,2.0,6.3,77,0.00,,,0.02,WUHU216HW,2013-02-21 11:50:00,
2013-02-21 05:55:00,45.2,38.4,29.53,ENE,68,4.7,4.7,77,0.00,,,0.02,WUHU216HW,2013-02-21 11:55:00,
2013-02-21 06:00:00,45.2,38.4,29.53,NE,45,2.5,4.7,77,0.00,,,0.02,WUHU216HW,2013-02-21 12:00:00,
2013-02-21 06:05:00,45.2,38.7,29.53,NNW,338,2.5,4.7,78,0.00,,,0.02,WUHU216HW,2013-02-21 12:05:00,
2013-02-21 06:10:00,45.4,38.6,29.53,ENE,68,1.8,4.7,77,0.00,,,0.02,WUHU216HW,2013-02-21 12:10:00,
2013-02-21 06:15:00,45.4,38.6,29.52,East,90,1.8,3.4,77,0.00,,,0.02,WUHU216HW,2013-02-21 12:15:00,
2013-02-21 06:20:00,45.5,38.8,29.52,ENE,68,0.7,3.4,77,0.00,,,0.02,WUHU216HW,2013-02-21 12:20:00,
2013-02-21 06:25:00,45.5,39.1,29.52,SE,135,1.3,2.9,78,0.00,,,0.02,WUHU216HW,2013-02-21 12:25:00,
2013-02-21 06:30:00,45.7,39.2,29.51,SW,225,2.2,4.0,78,0.00,,,0.02,WUHU216HW,2013-02-21 12:30:00,
2013-02-21 06:35:00,45.7,39.0,29.51,SE,135,2.7,4.0,77,0.00,,,0.02,WUHU216HW,2013-02-21 12:35:00,
2013-02-21 06:40:00,45.9,39.4,29.51,SSE,158,4.0,5.4,78,0.00,,,0.02,WUHU216HW,2013-02-21 12:40:00,
2013-02-21 06:45:00,45.9,39.4,29.51,ESE,113,4.7,5.4,78,0.00,,,0.02,WUHU216HW,2013-02-21 12:45:00,
2013-02-21 06:50:00,46.1,39.6,29.51,West,270,1.1,5.6,78,0.00,,,0.02,WUHU216HW,2013-02-21 12:50:00,
2013-02-21 06:55:00,46.1,39.6,29.50,SSW,203,2.5,5.6,78,0.00,,,0.02,WUHU216HW,2013-02-21 12:55:00,
2013-02-21 07:00:00,46.1,40.0,29.50,ENE,68,2.5,6.0,79,0.00,,,0.02,WUHU216HW,2013-02-21 13:00:00,
2013-02-21 07:05:00,46.1,40.3,29.49,SE,135,2.2,6.0,80,0.00,,,0.02,WUHU216HW,2013-02-21 13:05:00,
2013-02-21 07:10:00,46.3,40.1,29.50,North,0,0.9,4.0,79,0.00,,,0.02,WUHU216HW,2013-02-21 13:10:00,
2013-02-21 07:15:00,46.3,40.5,29.50,East,90,2.2,3.4,80,0.00,,,0.02,WUHU216HW,2013-02-21 13:15:00,
2013-02-21 07:20:00,46.4,40.3,29.50,SSW,203,0.9,3.1,79,0.00,,,0.02,WUHU216HW,2013-02-21 13:20:00,
2013-02-21 07:25:00,46.4,40.7,29.50,ESE,113,1.8,3.4,80,0.00,,,0.02,WUHU216HW,2013-02-21 13:25:00,
2013-02-21 07:30:00,46.4,40.3,29.50,SSE,158,4.0,5.1,79,0.00,,,0.02,WUHU216HW,2013-02-21 13:30:00,
2013-02-21 07:35:00,46.6,40.9,29.51,NE,45,4.3,5.1,80,0.00,,,0.02,WUHU216HW,2013-02-21 13:35:00,
2013-02-21 07:40:00,46.6,41.1,29.51,ENE,68,2.0,4.3,81,0.00,,,0.02,WUHU216HW,2013-02-21 13:40:00,
2013-02-21 07:45:00,46.8,41.3,29.51,SE,135,1.8,4.3,81,0.00,,,0.02,WUHU216HW,2013-02-21 13:45:00,
2013-02-21 07:50:00,46.8,41.3,29.51,SW,225,0.7,3.4,81,0.00,,,0.02,WUHU216HW,2013-02-21 13:50:00,
2013-02-21 07:55:00,47.0,41.5,29.60,SE,135,1.8,4.0,81,0.00,,,0.02,WUHU216HW,2013-02-21 13:55:00,
2013-02-21 08:00:00,47.2,41.9,29.63,NE,45,3.4,6.3,82,0.00,,,0.02,WUHU216HW,2013-02-21 14:00:00,
2013-02-21 08:05:00,47.2,41.7,29.63,NW,315,3.1,6.3,81,0.00,,,0.02,WUHU216HW,2013-02-21 14:05:00,
2013-02-21 08:10:00,47.2,41.7,29.62,West,270,1.8,4.0,81,0.01,,,0.03,WUHU216HW,2013-02-21 14:10:00,
2013-02-21 08:15:00,47.2,41.7,29.65,SE,135,1.1,4.0,81,0.05,,,0.07,WUHU216HW,2013-02-21 14:15:00,
2013-02-21 08:20:00,47.2,41.7,29.65,NNW,338,1.8,3.4,81,0.07,,,0.09,WUHU216HW,2013-02-21 14:20:00,
2013-02-21 08:25:00,47.2,41.7,29.64,NW,315,2.9,3.1,81,0.08,,,0.10,WUHU216HW,2013-02-21 14:25:00,
2013-02-21 08:30:00,47.0,41.5,29.63,East,90,0.9,3.1,81,0.09,,,0.11,WUHU216HW,2013-02-21 14:30:00,
2013-02-21 08:35:00,47.0,41.8,29.63,NNW,338,2.5,3.1,82,0.12,,,0.14,WUHU216HW,2013-02-21 14:35:00,
2013-02-21 08:40:00,46.8,41.6,29.63,WNW,293,2.0,3.4,82,0.12,,,0.14,WUHU216HW,2013-02-21 14:40:00,
2013-02-21 08:45:00,46.8,41.6,29.62,North,0,0.9,3.6,82,0.12,,,0.14,WUHU216HW,2013-02-21 14:45:00,
2013-02-21 08:50:00,46.8,41.6,29.63,NNE,23,0.9,3.6,82,0.12,,,0.14,WUHU216HW,2013-02-21 14:50:00,
2013-02-21 08:55:00,46.6,41.8,29.63,NE,45,2.9,2.9,83,0.12,,,0.14,WUHU216HW,2013-02-21 14:55:00,
2013-02-21 09:00:00,46.6,41.8,29.62,NNE,23,2.5,4.0,83,0.12,,,0.14,WUHU216HW,2013-02-21 15:00:00,
2013-02-21 09:05:00,46.6,41.8,29.62,NW,315,2.2,4.0,83,0.12,,,0.14,WUHU216HW,2013-02-21 15:05:00,
2013-02-21 09:10:00,46.4,41.6,29.61,NNE,23,1.8,4.0,83,0.08,,,0.14,WUHU216HW,2013-02-21 15:10:00,
2013-02-21 09:15:00,46.4,42.0,29.61,NNE,23,3.4,4.0,84,0.05,,,0.14,WUHU216HW,2013-02-21 15:15:00,
2013-02-21 09:20:00,46.4,42.0,29.61,NNE,23,1.6,3.4,84,0.05,,,0.14,WUHU216HW,2013-02-21 15:20:00,
2013-02-21 09:25:00,46.4,42.2,29.61,ENE,68,3.4,5.4,85,0.04,,,0.14,WUHU216HW,2013-02-21 15:25:00,
2013-02-21 09:30:00,46.4,42.2,29.61,NE,45,2.0,5.4,85,0.03,,,0.14,WUHU216HW,2013-02-21 15:30:00,
2013-02-21 09:35:00,46.3,42.0,29.61,NNE,23,0.9,4.5,85,0.01,,,0.14,WUHU216HW,2013-02-21 15:35:00,
2013-02-21 09:40:00,46.4,42.0,29.61,ENE,68,0.4,4.5,84,0.00,,,0.14,WUHU216HW,2013-02-21 15:40:00,
2013-02-21 09:45:00,46.6,42.0,29.61,NNE,23,1.6,2.2,84,0.00,,,0.14,WUHU216HW,2013-02-21 15:45:00,
2013-02-21 09:50:00,46.8,42.6,29.60,NNE,23,1.3,2.5,85,0.00,,,0.14,WUHU216HW,2013-02-21 15:50:00,
2013-02-21 09:55:00,47.0,42.4,29.60,NNE,23,0.4,2.5,84,0.00,,,0.14,WUHU216HW,2013-02-21 15:55:00,
2013-02-21 10:00:00,47.2,42.6,29.61,NNW,338,0.4,2.2,84,0.00,,,0.14,WUHU216HW,2013-02-21 16:00:00,
2013-02-21 10:05:00,47.5,42.9,29.61,NE,45,1.3,2.5,84,0.00,,,0.14,WUHU216HW,2013-02-21 16:05:00,
2013-02-21 10:10:00,47.7,43.1,29.60,NE,45,0.7,2.5,84,0.00,,,0.14,WUHU216HW,2013-02-21 16:10:00,
2013-02-21 10:15:00,48.1,43.5,29.60,North,0,0.4,3.4,84,0.00,,,0.14,WUHU216HW,2013-02-21 16:15:00,
2013-02-21 10:20:00,48.4,43.7,29.60,NNE,23,0.4,3.4,84,0.00,,,0.14,WUHU216HW,2013-02-21 16:20:00,
2013-02-21 10:25:00,48.8,43.8,29.60,NE,45,0.4,1.3,83,0.00,,,0.14,WUHU216HW,2013-02-21 16:25:00,
2013-02-21 10:30:00,49.0,44.0,29.60,NE,45,0.0,1.1,83,0.00,,,0.14,WUHU216HW,2013-02-21 16:30:00,
2013-02-21 10:35:00,49.3,44.3,29.61,SW,225,0.7,1.1,83,0.00,,,0.14,WUHU216HW,2013-02-21 16:35:00,
2013-02-21 10:40:00,49.7,45.0,29.62,NNW,338,1.8,1.8,84,0.00,,,0.14,WUHU216HW,2013-02-21 16:40:00,
2013-02-21 10:45:00,50.0,45.0,29.61,SSW,203,0.0,1.8,83,0.00,,,0.14,WUHU216HW,2013-02-21 16:45:00,
2013-02-21 10:50:00,50.2,45.2,29.62,NNE,23,0.2,1.8,83,0.00,,,0.14,WUHU216HW,2013-02-21 16:50:00,
2013-02-21 10:55:00,50.4,45.1,29.61,NNE,23,1.1,1.1,82,0.00,,,0.14,WUHU216HW,2013-02-21 16:55:00,
2013-02-21 11:00:00,50.4,45.1,29.61,WSW,248,0.9,2.5,82,0.00,,,0.14,WUHU216HW,2013-02-21 17:00:00,
2013-02-21 11:05:00,50.6,45.3,29.61,SSW,203,2.0,2.5,82,0.00,,,0.14,WUHU216HW,2013-02-21 17:05:00,
2013-02-21 11:10:00,50.8,45.5,29.62,SSW,203,0.4,2.5,82,0.00,,,0.14,WUHU216HW,2013-02-21 17:10:00,
2013-02-21 11:15:00,50.9,45.3,29.62,SSW,203,1.1,3.8,81,0.00,,,0.14,WUHU216HW,2013-02-21 17:15:00,
2013-02-21 11:20:00,51.1,45.5,29.63,SW,225,2.2,3.8,81,0.00,,,0.14,WUHU216HW,2013-02-21 17:20:00,
2013-02-21 11:25:00,51.3,45.4,29.63,SSW,203,2.9,2.9,80,0.00,,,0.14,WUHU216HW,2013-02-21 17:25:00,
2013-02-21 11:30:00,51.5,45.5,29.63,South,180,0.4,2.9,80,0.00,,,0.14,WUHU216HW,2013-02-21 17:30:00,
2013-02-21 11:35:00,51.5,45.5,29.63,SW,225,1.6,2.9,80,0.00,,,0.14,WUHU216HW,2013-02-21 17:35:00,
2013-02-21 11:40:00,51.8,45.9,29.63,SW,225,2.7,5.1,80,0.00,,,0.14,WUHU216HW,2013-02-21 17:40:00,
2013-02-21 11:45:00,52.2,46.3,29.63,SSW,203,0.9,5.1,80,0.00,,,0.14,WUHU216HW,2013-02-21 17:45:00,
2013-02-21 11:50:00,52.4,46.1,29.62,SW,225,1.8,5.1,79,0.00,,,0.14,WUHU216HW,2013-02-21 17:50:00,
2013-02-21 11:55:00,52.6,46.3,29.62,WSW,248,0.7,5.1,79,0.00,,,0.14,WUHU216HW,2013-02-21 17:55:00,
2013-02-21 12:00:00,52.7,46.1,29.62,SSE,158,0.4,2.5,78,0.00,,,0.14,WUHU216HW,2013-02-21 18:00:00,
2013-02-21 12:05:00,52.9,46.3,29.62,West,270,0.4,2.9,78,0.00,,,0.14,WUHU216HW,2013-02-21 18:05:00,
2013-02-21 12:10:00,53.3,46.6,29.62,SSW,203,2.0,4.9,78,0.00,,,0.14,WUHU216HW,2013-02-21 18:10:00,
2013-02-21 12:15:00,53.6,47.0,29.61,SW,225,1.1,4.9,78,0.00,,,0.14,WUHU216HW,2013-02-21 18:15:00,
2013-02-21 12:20:00,53.6,47.0,29.61,East,90,1.3,2.7,78,0.00,,,0.14,WUHU216HW,2013-02-21 18:20:00,
2013-02-21 12:25:00,54.0,47.0,29.61,SSW,203,0.4,2.7,77,0.00,,,0.14,WUHU216HW,2013-02-21 18:25:00,
2013-02-21 12:30:00,54.4,47.3,29.61,South,180,1.3,4.5,77,0.00,,,0.14,WUHU216HW,2013-02-21 18:30:00,
2013-02-21 12:35:00,55.1,48.0,29.61,SE,135,0.4,7.4,77,0.00,,,0.14,WUHU216HW,2013-02-21 18:35:00,
2013-02-21 12:40:00,55.4,48.0,29.61,SW,225,1.3,7.4,76,0.00,,,0.14,WUHU216HW,2013-02-21 18:40:00,
2013-02-21 12:45:00,55.8,48.0,29.60,SW,225,2.5,4.9,75,0.00,,,0.14,WUHU216HW,2013-02-21 18:45:00,
2013-02-21 12:50:00,56.2,48.0,29.60,ESE,113,0.9,4.5,74,0.00,,,0.14,WUHU216HW,2013-02-21 18:50:00,
2013-02-21 12:55:00,56.3,47.8,29.60,WSW,248,3.4,6.0,73,0.00,,,0.14,WUHU216HW,2013-02-21 18:55:00,
2013-02-21 13:00:00,56.7,48.1,29.60,WSW,248,1.3,6.0,73,0.00,,,0.14,WUHU216HW,2013-02-21 19:00:00,
2013-02-21 13:05:00,57.1,48.1,29.59,South,180,7.8,7.8,72,0.00,,,0.14,WUHU216HW,2013-02-21 19:05:00,
2013-02-21 13:10:00,57.6,48.2,29.59,SW,225,6.0,8.5,71,0.00,,,0.14,WUHU216HW,2013-02-21 19:10:00,
2013-02-21 13:15:00,58.0,48.2,29.59,SSW,203,4.5,9.8,70,0.00,,,0.14,WUHU216HW,2013-02-21 19:15:00,
2013-02-21 13:20:00,58.3,48.2,29.59,SE,135,2.5,9.8,69,0.00,,,0.14,WUHU216HW,2013-02-21 19:20:00,
2013-02-21 13:25:00,58.7,47.7,29.59,SW,225,7.6,8.5,67,0.00,,,0.14,WUHU216HW,2013-02-21 19:25:00,
2013-02-21 13:30:00,58.9,47.5,29.58,West,270,7.8,10.5,66,0.00,,,0.14,WUHU216HW,2013-02-21 19:30:00,
2013-02-21 13:35:00,59.4,47.6,29.58,East,90,2.7,10.5,65,0.00,,,0.14,WUHU216HW,2013-02-21 19:35:00,
2013-02-21 13:40:00,59.8,47.2,29.57,SW,225,8.3,8.3,63,0.00,,,0.14,WUHU216HW,2013-02-21 19:40:00,
2013-02-21 13:45:00,60.1,47.1,29.57,SE,135,2.7,8.3,62,0.00,,,0.14,WUHU216HW,2013-02-21 19:45:00,
2013-02-21 13:50:00,60.5,45.6,29.57,WSW,248,2.9,6.5,58,0.00,,,0.14,WUHU216HW,2013-02-21 19:50:00,
2013-02-21 13:55:00,60.7,44.4,29.57,SE,135,1.8,6.5,55,0.00,,,0.14,WUHU216HW,2013-02-21 19:55:00,
2013-02-21 14:00:00,60.8,43.1,29.57,SSE,158,2.2,4.3,52,0.00,,,0.14,WUHU216HW,2013-02-21 20:00:00,
2013-02-21 14:05:00,61.0,42.8,29.57,SE,135,3.1,11.2,51,0.00,,,0.14,WUHU216HW,2013-02-21 20:05:00,
2013-02-21 14:10:00,61.2,42.9,29.57,NE,45,2.0,11.2,51,0.00,,,0.14,WUHU216HW,2013-02-21 20:10:00,
2013-02-21 14:15:00,61.4,42.0,29.57,East,90,2.5,5.6,49,0.00,,,0.14,WUHU216HW,2013-02-21 20:15:00,
2013-02-21 14:20:00,61.6,42.2,29.57,SW,225,2.7,6.3,49,0.00,,,0.14,WUHU216HW,2013-02-21 20:20:00,
2013-02-21 14:25:00,61.9,41.9,29.57,NNW,338,3.1,6.3,48,0.00,,,0.14,WUHU216HW,2013-02-21 20:25:00,
2013-02-21 14:30:00,62.3,42.3,29.57,East,90,1.8,5.6,48,0.00,,,0.14,WUHU216HW,2013-02-21 20:30:00,
2013-02-21 14:35:00,62.1,42.1,29.57,ENE,68,2.5,5.6,48,0.00,,,0.14,WUHU216HW,2013-02-21 20:35:00,
2013-02-21 14:40:00,62.3,42.3,29.57,SE,135,1.3,3.8,48,0.00,,,0.14,WUHU216HW,2013-02-21 20:40:00,
2013-02-21 14:45:00,62.3,42.8,29.57,ENE,68,0.7,4.7,49,0.00,,,0.14,WUHU216HW,2013-02-21 20:45:00,
2013-02-21 14:50:00,62.5,43.0,29.57,WNW,293,4.0,6.9,49,0.00,,,0.14,WUHU216HW,2013-02-21 20:50:00,
2013-02-21 14:55:00,62.6,43.2,29.57,SE,135,1.1,6.9,49,0.00,,,0.14,WUHU216HW,2013-02-21 20:55:00,
2013-02-21 15:00:00,62.8,42.8,29.56,ESE,113,1.6,4.9,48,0.00,,,0.14,WUHU216HW,2013-02-21 21:00:00,
2013-02-21 15:05:00,63.0,43.5,29.57,ESE,113,1.3,3.8,49,0.00,,,0.14,WUHU216HW,2013-02-21 21:05:00,
2013-02-21 15:10:00,63.0,42.9,29.57,SSW,203,3.1,3.8,48,0.00,,,0.14,WUHU216HW,2013-02-21 21:10:00,
2013-02-21 15:15:00,63.2,43.1,29.57,SE,135,2.0,3.1,48,0.00,,,0.14,WUHU216HW,2013-02-21 21:15:00,
2013-02-21 15:20:00,63.4,43.8,29.57,SSW,203,1.1,6.3,49,0.00,,,0.14,WUHU216HW,2013-02-21 21:20:00,
2013-02-21 15:25:00,63.4,43.2,29.57,ESE,113,1.8,6.3,48,0.00,,,0.14,WUHU216HW,2013-02-21 21:25:00,
2013-02-21 15:30:00,63.5,43.4,29.57,WSW,248,2.5,5.4,48,0.00,,,0.14,WUHU216HW,2013-02-21 21:30:00,
2013-02-21 15:35:00,63.7,43.6,29.57,SSW,203,1.8,8.9,48,0.00,,,0.14,WUHU216HW,2013-02-21 21:35:00,
2013-02-21 15:40:00,63.7,42.4,29.57,NNE,23,2.2,8.9,46,0.00,,,0.14,WUHU216HW,2013-02-21 21:40:00,
2013-02-21 15:45:00,64.1,42.8,29.58,SW,225,5.4,5.6,46,0.00,,,0.14,WUHU216HW,2013-02-21 21:45:00,
2013-02-21 15:50:00,64.1,43.3,29.57,South,180,2.0,6.7,47,0.00,,,0.14,WUHU216HW,2013-02-21 21:50:00,
2013-02-21 15:55:00,64.1,42.8,29.58,SE,135,1.3,6.7,46,0.00,,,0.14,WUHU216HW,2013-02-21 21:55:00,
2013-02-21 16:00:00,64.3,42.9,29.57,SW,225,1.3,6.5,46,0.00,,,0.14,WUHU216HW,2013-02-21 22:00:00,
2013-02-21 16:05:00,64.4,43.0,29.58,East,90,2.0,6.7,46,0.00,,,0.14,WUHU216HW,2013-02-21 22:05:00,
2013-02-21 16:10:00,64.4,43.0,29.58,WSW,248,5.6,6.7,46,0.00,,,0.14,WUHU216HW,2013-02-21 22:10:00,
2013-02-21 16:15:00,64.4,42.5,29.58,WSW,248,4.0,5.6,45,0.00,,,0.14,WUHU216HW,2013-02-21 22:15:00,
2013-02-21 16:20:00,64.4,42.5,29.58,SSW,203,1.1,5.6,45,0.00,,,0.14,WUHU216HW,2013-02-21 22:20:00,
2013-02-21 16:25:00,64.6,42.0,29.58,SW,225,1.8,7.6,44,0.00,,,0.14,WUHU216HW,2013-02-21 22:25:00,
2013-02-21 16:30:00,64.8,42.2,29.58,WSW,248,0.9,7.6,44,0.00,,,0.14,WUHU216HW,2013-02-21 22:30:00,
2013-02-21 16:35:00,65.0,41.9,29.58,South,180,2.7,2.9,43,0.00,,,0.14,WUHU216HW,2013-02-21 22:35:00,
2013-02-21 16:40:00,65.2,40.9,29.59,SSW,203,3.1,4.9,41,0.00,,,0.14,WUHU216HW,2013-02-21 22:40:00,
2013-02-21 16:45:00,65.2,39.5,29.59,SSW,203,2.7,4.9,39,0.00,,,0.14,WUHU216HW,2013-02-21 22:45:00,
2013-02-21 16:50:00,65.2,38.1,29.59,SSW,203,0.7,4.5,37,0.00,,,0.14,WUHU216HW,2013-02-21 22:50:00,
2013-02-21 16:55:00,65.3,37.5,29.60,SSE,158,2.0,9.2,36,0.00,,,0.14,WUHU216HW,2013-02-21 22:55:00,
2013-02-21 17:00:00,65.5,37.0,29.60,SSW,203,2.7,9.2,35,0.00,,,0.14,WUHU216HW,2013-02-21 23:00:00,
2013-02-21 17:05:00,65.5,36.3,29.60,South,180,1.8,6.5,34,0.00,,,0.14,WUHU216HW,2013-02-21 23:05:00,
2013-02-21 17:10:00,65.5,36.3,29.60,SW,225,2.0,10.5,34,0.00,,,0.14,WUHU216HW,2013-02-21 23:10:00,
2013-02-21 17:15:00,65.3,37.5,29.60,South,180,1.1,10.5,36,0.00,,,0.14,WUHU216HW,2013-02-21 23:15:00,
2013-02-21 17:20:00,65.2,37.4,29.60,North,0,2.2,4.9,36,0.00,,,0.14,WUHU216HW,2013-02-21 23:20:00,
2013-02-21 17:25:00,65.2,35.9,29.60,SW,225,1.6,5.4,34,0.00,,,0.14,WUHU216HW,2013-02-21 23:25:00,
2013-02-21 17:30:00,65.2,37.4,29.60,North,0,1.6,6.5,36,0.00,,,0.14,WUHU216HW,2013-02-21 23:30:00,
2013-02-21 17:35:00,65.0,35.7,29.60,ESE,113,3.6,6.5,34,0.00,,,0.14,WUHU216HW,2013-02-21 23:35:00,
2013-02-21 17:40:00,64.8,37.1,29.61,SSE,158,1.6,4.0,36,0.00,,,0.14,WUHU216HW,2013-02-21 23:40:00,
2013-02-21 17:45:00,64.8,35.7,29.61,East,90,1.6,4.0,34,0.00,,,0.14,WUHU216HW,2013-02-21 23:45:00,
2013-02-21 17:50:00,64.4,35.3,29.61,North,0,1.1,4.5,34,0.00,,,0.14,WUHU216HW,2013-02-21 23:50:00,
2013-02-21 17:55:00,64.4,36.0,29.62,East,90,2.5,6.9,35,0.00,,,0.14,WUHU216HW,2013-02-21 23:55:00,
2013-02-21 18:00:00,64.3,36.5,29.62,West,270,2.2,6.9,36,0.00,,,0.14,WUHU216HW,2013-02-22 00:00:00,
2013-02-21 18:05:00,64.1,36.4,29.63,East,90,1.1,3.1,36,0.00,,,0.14,WUHU216HW,2013-02-22 00:05:00,
2013-02-21 18:10:00,63.7,36.8,29.63,ESE,113,0.9,2.7,37,0.00,,,0.14,WUHU216HW,2013-02-22 00:10:00,
2013-02-21 18:15:00,63.5,36.6,29.64,SSW,203,0.4,2.7,37,0.00,,,0.14,WUHU216HW,2013-02-22 00:15:00,
2013-02-21 18:20:00,63.4,37.2,29.65,SSW,203,0.9,2.2,38,0.00,,,0.14,WUHU216HW,2013-02-22 00:20:00,
2013-02-21 18:25:00,63.2,37.0,29.65,South,180,0.4,2.5,38,0.00,,,0.14,WUHU216HW,2013-02-22 00:25:00,
2013-02-21 18:30:00,63.0,36.9,29.65,WSW,248,1.6,2.5,38,0.00,,,0.14,WUHU216HW,2013-02-22 00:30:00,
2013-02-21 18:35:00,62.8,37.5,29.66,SW,225,0.2,3.4,39,0.00,,,0.14,WUHU216HW,2013-02-22 00:35:00,
2013-02-21 18:40:00,62.6,37.3,29.65,SSW,203,0.7,3.4,39,0.00,,,0.14,WUHU216HW,2013-02-22 00:40:00,
2013-02-21 18:45:00,62.3,37.6,29.66,WSW,248,3.4,3.4,40,0.00,,,0.14,WUHU216HW,2013-02-22 00:45:00,
2013-02-21 18:50:00,62.1,37.5,29.66,SW,225,1.1,3.4,40,0.00,,,0.14,WUHU216HW,2013-02-22 00:50:00,
2013-02-21 18:55:00,61.9,37.4,29.66,SE,135,1.1,5.8,40,0.00,,,0.14,WUHU216HW,2013-02-22 00:55:00,
2013-02-21 19:00:00,61.9,37.4,29.67,SSW,203,0.7,5.8,40,0.00,,,0.14,WUHU216HW,2013-02-22 01:00:00,
2013-02-21 19:05:00,61.6,37.6,29.67,SW,225,0.4,4.5,41,0.00,,,0.14,WUHU216HW,2013-02-22 01:05:00,
2013-02-21 19:10:00,61.6,37.6,29.67,WSW,248,1.8,4.5,41,0.00,,,0.14,WUHU216HW,2013-02-22 01:10:00,
2013-02-21 19:15:00,61.4,37.5,29.68,SSW,203,0.4,3.8,41,0.00,,,0.14,WUHU216HW,2013-02-22 01:15:00,
2013-02-21 19:20:00,61.2,37.8,29.67,SSE,158,0.4,1.8,42,0.00,,,0.14,WUHU216HW,2013-02-22 01:20:00,
2013-02-21 19:25:00,60.8,38.1,29.68,SW,225,0.0,0.7,43,0.00,,,0.14,WUHU216HW,2013-02-22 01:25:00,
2013-02-21 19:30:00,60.7,37.9,29.68,South,180,0.4,0.7,43,0.00,,,0.14,WUHU216HW,2013-02-22 01:30:00,
2013-02-21 19:35:00,60.3,38.2,29.68,South,180,0.0,0.4,44,0.00,,,0.14,WUHU216HW,2013-02-22 01:35:00,
2013-02-21 19:40:00,59.9,37.9,29.68,SE,135,0.0,1.1,44,0.00,,,0.14,WUHU216HW,2013-02-22 01:40:00,
2013-02-21 19:45:00,59.8,38.3,29.68,South,180,0.0,1.1,45,0.00,,,0.14,WUHU216HW,2013-02-22 01:45:00,
2013-02-21 19:50:00,59.4,38.0,29.69,South,180,0.0,0.4,45,0.00,,,0.14,WUHU216HW,2013-02-22 01:50:00,
2013-02-21 19:55:00,59.0,37.6,29.69,South,180,0.0,0.0,45,0.00,,,0.14,WUHU216HW,2013-02-22 01:55:00,
2013-02-21 20:00:00,58.9,38.1,29.69,South,180,0.0,0.0,46,0.00,,,0.14,WUHU216HW,2013-02-22 02:00:00,
2013-02-21 20:05:00,58.7,37.9,29.70,South,180,0.0,0.2,46,0.00,,,0.14,WUHU216HW,2013-02-22 02:05:00,
2013-02-21 20:10:00,58.3,37.5,29.70,South,180,0.0,0.4,46,0.00,,,0.14,WUHU216HW,2013-02-22 02:10:00,
2013-02-21 20:15:00,58.0,37.3,29.70,South,180,0.0,0.4,46,0.00,,,0.14,WUHU216HW,2013-02-22 02:15:00,
2013-02-21 20:20:00,57.8,37.6,29.70,South,180,0.0,0.0,47,0.00,,,0.14,WUHU216HW,2013-02-22 02:20:00,
2013-02-21 20:25:00,57.4,37.4,29.70,South,180,0.0,0.0,47,0.00,,,0.14,WUHU216HW,2013-02-22 02:25:00,
2013-02-21 20:30:00,57.2,37.7,29.71,NNW,338,0.4,0.9,48,0.00,,,0.14,WUHU216HW,2013-02-22 02:30:00,
2013-02-21 20:35:00,57.1,37.5,29.72,SSW,203,1.8,1.8,48,0.00,,,0.14,WUHU216HW,2013-02-22 02:35:00,
2013-02-21 20:40:00,57.1,37.5,29.73,NW,315,1.8,3.4,48,0.00,,,0.14,WUHU216HW,2013-02-22 02:40:00,
2013-02-21 20:45:00,57.2,37.7,29.74,South,180,2.7,3.4,48,0.00,,,0.14,WUHU216HW,2013-02-22 02:45:00,
2013-02-21 20:50:00,57.2,38.4,29.75,WNW,293,2.0,5.6,49,0.00,,,0.14,WUHU216HW,2013-02-22 02:50:00,
2013-02-21 20:55:00,57.1,39.2,29.75,NW,315,2.5,6.3,51,0.00,,,0.14,WUHU216HW,2013-02-22 02:55:00,
2013-02-21 21:00:00,56.5,38.6,29.76,NE,45,5.1,8.7,51,0.00,,,0.14,WUHU216HW,2013-02-22 03:00:00,
2013-02-21 21:05:00,55.8,38.3,29.77,NNE,23,6.9,8.7,52,0.00,,,0.14,WUHU216HW,2013-02-22 03:05:00,
2013-02-21 21:10:00,55.1,38.2,29.77,East,90,3.1,8.7,53,0.00,,,0.14,WUHU216HW,2013-02-22 03:10:00,
2013-02-21 21:15:00,54.5,38.2,29.77,ESE,113,3.4,7.2,54,0.00,,,0.14,WUHU216HW,2013-02-22 03:15:00,
2013-02-21 21:20:00,54.4,38.4,29.78,NNE,23,5.8,8.5,55,0.00,,,0.14,WUHU216HW,2013-02-22 03:20:00,
2013-02-21 21:25:00,54.0,38.2,29.78,NW,315,4.5,8.5,55,0.00,,,0.14,WUHU216HW,2013-02-22 03:25:00,
2013-02-21 21:30:00,53.6,37.8,29.79,NNE,23,5.4,7.6,55,0.00,,,0.14,WUHU216HW,2013-02-22 03:30:00,
2013-02-21 21:35:00,53.5,37.6,29.79,WSW,248,0.9,5.4,55,0.00,,,0.14,WUHU216HW,2013-02-22 03:35:00,
2013-02-21 21:40:00,53.3,37.9,29.79,NE,45,3.1,5.4,56,0.00,,,0.14,WUHU216HW,2013-02-22 03:40:00,
2013-02-21 21:45:00,52.9,37.6,29.79,NE,45,5.1,5.6,56,0.00,,,0.14,WUHU216HW,2013-02-22 03:45:00,
2013-02-21 21:50:00,52.7,37.9,29.79,NNW,338,1.8,6.9,57,0.00,,,0.14,WUHU216HW,2013-02-22 03:50:00,
2013-02-21 21:55:00,52.6,37.7,29.79,NW,315,2.2,6.9,57,0.00,,,0.14,WUHU216HW,2013-02-22 03:55:00,
2013-02-21 22:00:00,52.4,37.5,29.79,ENE,68,3.8,6.0,57,0.00,,,0.14,WUHU216HW,2013-02-22 04:00:00,
2013-02-21 22:05:00,52.2,37.4,29.79,ENE,68,1.1,3.8,57,0.00,,,0.14,WUHU216HW,2013-02-22 04:05:00,
2013-02-21 22:10:00,52.0,37.6,29.79,NNE,23,0.7,4.0,58,0.00,,,0.14,WUHU216HW,2013-02-22 04:10:00,
2013-02-21 22:15:00,51.8,37.4,29.81,North,0,1.8,4.0,58,0.00,,,0.14,WUHU216HW,2013-02-22 04:15:00,
2013-02-21 22:20:00,51.8,37.4,29.81,NE,45,1.1,5.4,58,0.00,,,0.14,WUHU216HW,2013-02-22 04:20:00,
2013-02-21 22:25:00,51.7,37.7,29.82,WNW,293,2.5,5.4,59,0.00,,,0.14,WUHU216HW,2013-02-22 04:25:00,
2013-02-21 22:30:00,51.5,37.5,29.82,NW,315,0.7,4.9,59,0.00,,,0.14,WUHU216HW,2013-02-22 04:30:00,
2013-02-21 22:35:00,51.3,37.5,29.82,North,0,2.0,4.9,59,0.00,,,0.14,WUHU216HW,2013-02-22 04:35:00,
2013-02-21 22:40:00,51.1,37.3,29.82,NNE,23,1.6,4.0,59,0.00,,,0.14,WUHU216HW,2013-02-22 04:40:00,
2013-02-21 22:45:00,50.9,37.5,29.82,NNE,23,1.3,3.8,60,0.00,,,0.14,WUHU216HW,2013-02-22 04:45:00,
2013-02-21 22:50:00,50.8,37.4,29.82,NE,45,1.1,3.8,60,0.00,,,0.14,WUHU216HW,2013-02-22 04:50:00,
2013-02-21 22:55:00,50.6,37.2,29.83,NW,315,1.1,4.0,60,0.00,,,0.14,WUHU216HW,2013-02-22 04:55:00,
2013-02-21 23:00:00,50.6,37.2,29.83,North,0,3.4,4.0,60,0.00,,,0.14,WUHU216HW,2013-02-22 05:00:00,
2013-02-21 23:05:00,50.4,37.1,29.83,WNW,293,0.7,4.0,60,0.00,,,0.14,WUHU216HW,2013-02-22 05:05:00,
2013-02-21 23:10:00,50.2,37.3,29.83,NW,315,2.7,5.4,61,0.00,,,0.14,WUHU216HW,2013-02-22 05:10:00,
2013-02-21 23:15:00,50.0,37.1,29.83,SSE,158,1.3,5.4,61,0.00,,,0.14,WUHU216HW,2013-02-22 05:15:00,
2013-02-21 23:20:00,50.0,37.1,29.83,NNW,338,1.1,3.6,61,0.00,,,0.14,WUHU216HW,2013-02-22 05:20:00,
2013-02-21 23:25:00,49.9,37.0,29.83,ENE,68,0.2,3.6,61,0.00,,,0.14,WUHU216HW,2013-02-22 05:25:00,
2013-02-21 23:30:00,49.7,37.2,29.83,NNE,23,0.2,3.6,62,0.00,,,0.14,WUHU216HW,2013-02-22 05:30:00,
2013-02-21 23:35:00,49.5,37.0,29.83,NE,45,0.9,3.4,62,0.00,,,0.14,WUHU216HW,2013-02-22 05:35:00,
2013-02-21 23:40:00,49.3,36.8,29.83,NNW,338,0.2,4.0,62,0.00,,,0.14,WUHU216HW,2013-02-22 05:40:00,
2013-02-21 23:45:00,49.1,36.7,29.83,NNW,338,1.3,5.1,62,0.00,,,0.14,WUHU216HW,2013-02-22 05:45:00,
2013-02-21 23:50:00,49.0,36.6,29.83,NW,315,2.5,5.1,62,0.00,,,0.14,WUHU216HW,2013-02-22 05:50:00,
2013-02-21 23:55:00,48.8,36.0,29.83,ENE,68,1.8,3.6,61,0.00,,,0.14,WUHU216HW,2013-02-22 05:55:00,